ITY34P KIAH-KDEN

Flight info

Callsign ITY34P
Flight time 2h 7m
Altitude 37000
Route STYCK8 DOLEY MRMAC ROLLS HALEN NIIXX4
Aircraft A359/H-SDE2E3GHIJ1J3J4J5LM1ORWXY/LB1D1

Departure

Time 2026-05-04 18:37
Airport George Bush Intercontinental Airport (KIAH)

Arrival

Time 2026-05-04 20:44
Airport Denver International Airport (KDEN)
Time Latitude Longitude Altitude Speed Heading
2026-05-04 18:02 29.98996 -95.33449 110 ft 0 kts 224°
2026-05-04 18:03 29.98996 -95.33448 110 ft 0 kts 224°
2026-05-04 18:10 29.98997 -95.33448 113 ft 0 kts 224°
2026-05-04 18:13 29.98997 -95.33447 113 ft 0 kts 224°
2026-05-04 18:23 29.98998 -95.33447 113 ft 0 kts 224°
2026-05-04 18:23 29.98997 -95.33447 113 ft 0 kts 224°
2026-05-04 18:24 29.98998 -95.33447 113 ft 0 kts 224°
2026-05-04 18:26 29.98998 -95.33446 113 ft 0 kts 224°
2026-05-04 18:27 29.99012 -95.33431 115 ft 4 kts 224°
2026-05-04 18:27 29.99032 -95.33408 109 ft 4 kts 224°
2026-05-04 18:27 29.99051 -95.33386 109 ft 4 kts 225°
2026-05-04 18:28 29.99070 -95.33364 109 ft 4 kts 227°
2026-05-04 18:28 29.99085 -95.33343 109 ft 3 kts 239°
2026-05-04 18:28 29.99091 -95.33324 109 ft 2 kts 269°
2026-05-04 18:28 29.99091 -95.33315 109 ft 0 kts 273°
2026-05-04 18:31 29.99091 -95.33323 109 ft 11 kts 272°
2026-05-04 18:31 29.99092 -95.33535 111 ft 29 kts 270°
2026-05-04 18:32 29.99093 -95.33771 113 ft 30 kts 270°
2026-05-04 18:32 29.99082 -95.34017 111 ft 31 kts 266°
2026-05-04 18:32 29.99079 -95.34183 113 ft 32 kts 270°
2026-05-04 18:32 29.99083 -95.34529 111 ft 33 kts 272°
2026-05-04 18:33 29.99085 -95.34795 111 ft 32 kts 271°
2026-05-04 18:33 29.99090 -95.35055 110 ft 33 kts 271°
2026-05-04 18:33 29.99090 -95.35311 110 ft 29 kts 269°
2026-05-04 18:33 29.99042 -95.35472 111 ft 18 kts 206°
2026-05-04 18:34 29.98961 -95.35484 111 ft 17 kts 181°
2026-05-04 18:34 29.98813 -95.35542 111 ft 18 kts 233°
2026-05-04 18:34 29.98807 -95.35667 112 ft 11 kts 285°
2026-05-04 18:34 29.98808 -95.35682 113 ft 0 kts 274°
2026-05-04 18:35 29.98761 -95.35750 111 ft 15 kts 191°
2026-05-04 18:35 29.98695 -95.35727 111 ft 15 kts 152°
2026-05-04 18:35 29.98689 -95.35723 111 ft 0 kts 152°
2026-05-04 18:36 29.98421 -95.35559 112 ft 80 kts 152°
2026-05-04 18:36 29.98008 -95.35306 113 ft 122 kts 152°
2026-05-04 18:36 29.96822 -95.34565 598 ft 154 kts 150°
2026-05-04 18:37 29.95869 -95.34000 1307 ft 156 kts 165°
2026-05-04 18:37 29.95107 -95.33953 1555 ft 174 kts 190°
2026-05-04 18:37 29.93983 -95.34717 1844 ft 206 kts 226°
2026-05-04 18:37 29.93358 -95.36299 2150 ft 239 kts 258°
2026-05-04 18:38 29.93560 -95.38274 2728 ft 261 kts 289°
2026-05-04 18:38 29.94630 -95.39999 3433 ft 272 kts 316°
2026-05-04 18:38 29.96302 -95.41043 3931 ft 278 kts 342°
2026-05-04 18:38 29.98220 -95.41462 4544 ft 284 kts 351°
2026-05-04 18:39 30.00174 -95.41770 5440 ft 283 kts 348°
2026-05-04 18:39 30.02056 -95.42379 6375 ft 280 kts 338°
2026-05-04 18:39 30.03893 -95.43130 7288 ft 279 kts 337°
2026-05-04 18:39 30.06295 -95.44162 8621 ft 277 kts 335°
2026-05-04 18:40 30.07492 -95.44685 9315 ft 277 kts 336°
2026-05-04 18:40 30.09324 -95.45491 10283 ft 281 kts 335°
2026-05-04 18:40 30.11158 -95.46306 10770 ft 300 kts 335°
2026-05-04 18:40 30.13177 -95.47205 11147 ft 321 kts 335°
2026-05-04 18:41 30.15320 -95.48158 11496 ft 340 kts 335°
2026-05-04 18:41 30.17567 -95.49152 12092 ft 349 kts 336°
2026-05-04 18:41 30.19847 -95.50161 12819 ft 353 kts 335°
2026-05-04 18:41 30.22144 -95.51180 13615 ft 354 kts 335°
2026-05-04 18:42 30.24447 -95.52203 14310 ft 356 kts 335°
2026-05-04 18:42 30.26774 -95.53239 14920 ft 360 kts 335°
2026-05-04 18:42 30.29088 -95.54270 15538 ft 363 kts 335°
2026-05-04 18:42 30.31454 -95.55324 16186 ft 366 kts 334°
2026-05-04 18:43 30.33838 -95.56387 16814 ft 369 kts 334°
2026-05-04 18:43 30.36238 -95.57459 17457 ft 371 kts 334°
2026-05-04 18:43 30.38655 -95.58538 18101 ft 374 kts 334°
2026-05-04 18:43 30.41091 -95.59625 18686 ft 377 kts 334°
2026-05-04 18:44 30.43544 -95.60721 19292 ft 378 kts 334°
2026-05-04 18:44 30.45172 -95.61448 19710 ft 379 kts 334°
2026-05-04 18:44 30.48477 -95.62927 20506 ft 382 kts 334°
2026-05-04 18:44 30.50961 -95.64039 21077 ft 384 kts 334°
2026-05-04 18:45 30.53428 -95.65144 21681 ft 386 kts 334°
2026-05-04 18:45 30.55905 -95.66341 22276 ft 386 kts 330°
2026-05-04 18:45 30.58342 -95.67669 22906 ft 388 kts 330°
2026-05-04 18:45 30.60785 -95.69011 23535 ft 390 kts 330°
2026-05-04 18:46 30.63250 -95.70352 24113 ft 392 kts 330°
2026-05-04 18:46 30.65729 -95.71689 24673 ft 393 kts 330°
2026-05-04 18:46 30.68217 -95.73027 25229 ft 395 kts 329°
2026-05-04 18:46 30.70717 -95.74369 25796 ft 396 kts 329°
2026-05-04 18:47 30.73225 -95.75714 26360 ft 398 kts 329°
2026-05-04 18:47 30.75741 -95.77062 26924 ft 399 kts 329°
2026-05-04 18:47 30.78267 -95.78418 27503 ft 400 kts 329°
2026-05-04 18:47 30.80765 -95.79758 28025 ft 402 kts 329°
2026-05-04 18:48 30.83309 -95.81123 28608 ft 404 kts 328°
2026-05-04 18:48 30.85864 -95.82495 29177 ft 404 kts 328°
2026-05-04 18:48 30.88424 -95.83870 29729 ft 406 kts 328°
2026-05-04 18:48 30.90990 -95.85250 30186 ft 408 kts 328°
2026-05-04 18:49 30.93574 -95.86641 30552 ft 410 kts 328°
2026-05-04 18:49 30.96172 -95.88040 30906 ft 413 kts 328°
2026-05-04 18:49 30.98788 -95.89448 31262 ft 415 kts 328°
2026-05-04 18:49 31.01411 -95.90862 31630 ft 417 kts 328°
2026-05-04 18:50 31.04049 -95.92284 31957 ft 419 kts 328°
2026-05-04 18:50 31.06660 -95.93692 32284 ft 420 kts 328°
2026-05-04 18:50 31.09321 -95.95129 32611 ft 422 kts 328°
2026-05-04 18:50 31.12003 -95.96533 33123 ft 422 kts 330°
2026-05-04 18:51 31.14747 -95.97719 33780 ft 419 kts 332°
2026-05-04 18:51 31.17500 -95.98819 34261 ft 417 kts 333°
2026-05-04 18:51 31.20253 -95.99883 34593 ft 417 kts 333°
2026-05-04 18:51 31.23013 -96.00937 34916 ft 417 kts 333°
2026-05-04 18:52 31.25767 -96.01987 35259 ft 416 kts 333°
2026-05-04 18:52 31.28514 -96.03039 35600 ft 415 kts 333°
2026-05-04 18:52 31.31219 -96.04080 35940 ft 414 kts 333°
2026-05-04 18:52 31.33947 -96.05135 36262 ft 413 kts 333°
2026-05-04 18:53 31.36674 -96.06194 36585 ft 412 kts 333°
2026-05-04 18:53 31.39395 -96.07252 36910 ft 412 kts 333°
2026-05-04 18:53 31.42114 -96.08311 36992 ft 411 kts 333°
2026-05-04 18:54 31.47530 -96.10421 36995 ft 410 kts 333°
2026-05-04 18:54 31.52945 -96.12535 36994 ft 411 kts 333°
2026-05-04 18:55 31.58336 -96.14640 36991 ft 411 kts 333°
2026-05-04 18:55 31.66470 -96.17820 37007 ft 411 kts 333°
2026-05-04 18:56 31.71879 -96.19936 36991 ft 409 kts 332°
2026-05-04 18:56 31.77247 -96.22041 36989 ft 409 kts 332°
2026-05-04 18:57 31.82646 -96.24161 36990 ft 409 kts 332°
2026-05-04 18:57 31.88046 -96.26284 36996 ft 409 kts 332°
2026-05-04 18:58 31.93445 -96.28408 36999 ft 409 kts 332°
2026-05-04 18:58 31.98800 -96.30517 36999 ft 408 kts 332°
2026-05-04 18:59 32.04186 -96.32642 36998 ft 408 kts 332°
2026-05-04 18:59 32.09573 -96.34769 36998 ft 408 kts 332°
2026-05-04 19:00 32.14956 -96.36899 36995 ft 408 kts 332°
2026-05-04 19:00 32.20154 -96.39324 37009 ft 400 kts 325°
2026-05-04 19:01 32.25078 -96.42302 36977 ft 397 kts 324°
2026-05-04 19:01 32.29950 -96.45375 36960 ft 397 kts 324°
2026-05-04 19:02 32.34817 -96.48464 36947 ft 398 kts 324°
2026-05-04 19:02 32.39705 -96.51559 36949 ft 399 kts 324°
2026-05-04 19:03 32.44573 -96.54636 36944 ft 399 kts 324°
2026-05-04 19:03 32.49469 -96.57730 36935 ft 398 kts 324°
2026-05-04 19:04 32.54349 -96.60819 36936 ft 398 kts 324°
2026-05-04 19:04 32.59226 -96.63913 36933 ft 397 kts 324°
2026-05-04 19:05 32.64068 -96.66988 36930 ft 398 kts 324°
2026-05-04 19:05 32.68944 -96.70088 36921 ft 398 kts 324°
2026-05-04 19:06 32.73816 -96.73188 36913 ft 396 kts 323°
2026-05-04 19:06 32.78670 -96.76280 36926 ft 395 kts 323°
2026-05-04 19:07 32.83478 -96.79350 36908 ft 395 kts 323°
2026-05-04 19:07 32.88319 -96.82444 36916 ft 395 kts 323°
2026-05-04 19:08 32.93164 -96.85544 36922 ft 396 kts 323°
2026-05-04 19:08 32.98018 -96.88655 36938 ft 397 kts 323°
2026-05-04 19:09 33.02866 -96.91761 36928 ft 395 kts 323°
2026-05-04 19:09 33.07674 -96.94848 36904 ft 395 kts 323°
2026-05-04 19:10 33.12509 -96.97958 36904 ft 395 kts 323°
2026-05-04 19:10 33.17345 -97.01071 36903 ft 395 kts 323°
2026-05-04 19:11 33.22146 -97.04166 36905 ft 395 kts 323°
2026-05-04 19:11 33.26981 -97.07287 36905 ft 395 kts 323°
2026-05-04 19:12 33.34233 -97.11975 36903 ft 395 kts 323°
2026-05-04 19:13 33.39067 -97.15104 36899 ft 395 kts 323°
2026-05-04 19:13 33.43864 -97.18214 36899 ft 395 kts 323°
2026-05-04 19:14 33.48693 -97.21348 36932 ft 395 kts 323°
2026-05-04 19:14 33.53515 -97.24481 36911 ft 394 kts 323°
2026-05-04 19:15 33.58330 -97.27614 36914 ft 394 kts 323°
2026-05-04 19:15 33.63111 -97.30731 36915 ft 394 kts 323°
2026-05-04 19:16 33.67923 -97.33871 36912 ft 394 kts 323°
2026-05-04 19:16 33.72736 -97.37015 36902 ft 394 kts 323°
2026-05-04 19:17 33.77543 -97.40158 36864 ft 393 kts 323°
2026-05-04 19:17 33.82334 -97.43295 36856 ft 392 kts 323°
2026-05-04 19:18 33.87101 -97.46422 36856 ft 392 kts 323°
2026-05-04 19:18 33.91892 -97.49569 36847 ft 392 kts 323°
2026-05-04 19:19 33.96681 -97.52718 36850 ft 392 kts 323°
2026-05-04 19:19 34.01467 -97.55867 36847 ft 391 kts 322°
2026-05-04 19:20 34.06211 -97.58993 36840 ft 391 kts 322°
2026-05-04 19:20 34.10985 -97.62146 36826 ft 391 kts 322°
2026-05-04 19:21 34.15761 -97.65302 36828 ft 392 kts 322°
2026-05-04 19:21 34.20542 -97.68467 36823 ft 392 kts 322°
2026-05-04 19:22 34.25293 -97.71615 36826 ft 392 kts 322°
2026-05-04 19:22 34.30058 -97.74774 36812 ft 390 kts 322°
2026-05-04 19:23 34.34821 -97.77938 36812 ft 390 kts 322°
2026-05-04 19:23 34.39577 -97.81103 36806 ft 390 kts 322°
2026-05-04 19:24 34.44302 -97.84251 36806 ft 390 kts 322°
2026-05-04 19:24 34.49059 -97.87423 36866 ft 390 kts 322°
2026-05-04 19:25 34.53803 -97.90589 36832 ft 388 kts 322°
2026-05-04 19:25 34.58533 -97.93753 36825 ft 388 kts 322°
2026-05-04 19:26 34.63230 -97.96899 36815 ft 388 kts 322°
2026-05-04 19:26 34.67969 -98.00078 36808 ft 390 kts 322°
2026-05-04 19:27 34.72719 -98.03268 36829 ft 390 kts 322°
2026-05-04 19:27 34.77461 -98.06452 36772 ft 388 kts 322°
2026-05-04 19:28 34.82079 -98.09729 36766 ft 382 kts 317°
2026-05-04 19:28 34.86011 -98.13917 36774 ft 372 kts 306°
2026-05-04 19:29 34.89327 -98.18726 36745 ft 370 kts 304°
2026-05-04 19:29 34.92536 -98.23629 36730 ft 370 kts 304°
2026-05-04 19:30 34.95739 -98.28548 36730 ft 370 kts 304°
2026-05-04 19:30 34.98924 -98.33416 36730 ft 369 kts 304°
2026-05-04 19:31 35.02131 -98.38311 36731 ft 370 kts 304°
2026-05-04 19:31 35.05354 -98.43235 36725 ft 372 kts 304°
2026-05-04 19:32 35.08580 -98.48168 36727 ft 372 kts 304°
2026-05-04 19:32 35.11782 -98.53069 36722 ft 372 kts 304°
2026-05-04 19:33 35.15001 -98.58008 36718 ft 372 kts 304°
2026-05-04 19:33 35.18218 -98.62950 36720 ft 372 kts 304°
2026-05-04 19:34 35.21432 -98.67892 36718 ft 370 kts 304°
2026-05-04 19:34 35.24603 -98.72773 36704 ft 369 kts 303°
2026-05-04 19:35 35.27797 -98.77704 36721 ft 370 kts 303°
2026-05-04 19:35 35.30993 -98.82644 36701 ft 370 kts 303°
2026-05-04 19:36 35.34189 -98.87588 36694 ft 370 kts 303°
2026-05-04 19:36 35.37361 -98.92501 36694 ft 370 kts 303°
2026-05-04 19:37 35.40555 -98.97457 36690 ft 370 kts 303°
2026-05-04 19:37 35.43745 -99.02412 36687 ft 369 kts 303°
2026-05-04 19:38 35.46919 -99.07348 36685 ft 368 kts 303°
2026-05-04 19:38 35.50066 -99.12252 36677 ft 369 kts 303°
2026-05-04 19:39 35.53243 -99.17212 36729 ft 370 kts 303°
2026-05-04 19:39 35.56420 -99.22176 36717 ft 370 kts 303°
2026-05-04 19:40 35.59598 -99.27148 36700 ft 370 kts 303°
2026-05-04 19:40 35.62749 -99.32086 36685 ft 370 kts 303°
2026-05-04 19:41 35.65923 -99.37068 36666 ft 370 kts 303°
2026-05-04 19:41 35.69093 -99.42051 36685 ft 370 kts 303°
2026-05-04 19:42 35.72329 -99.46978 36656 ft 372 kts 307°
2026-05-04 19:42 35.75970 -99.51562 36660 ft 375 kts 308°
2026-05-04 19:43 35.79663 -99.56056 36653 ft 376 kts 309°
2026-05-04 19:43 35.83392 -99.60569 36654 ft 376 kts 309°
2026-05-04 19:44 35.87116 -99.65093 36666 ft 376 kts 308°
2026-05-04 19:44 35.90805 -99.69589 36645 ft 375 kts 308°
2026-05-04 19:45 35.94514 -99.74118 36652 ft 375 kts 308°
2026-05-04 19:45 35.98221 -99.78653 36661 ft 375 kts 308°
2026-05-04 19:46 36.01922 -99.83184 36672 ft 375 kts 308°
2026-05-04 19:46 36.05606 -99.87701 36680 ft 376 kts 308°
2026-05-04 19:47 36.09319 -99.92260 36719 ft 377 kts 308°
2026-05-04 19:47 36.13030 -99.96823 36689 ft 376 kts 308°
2026-05-04 19:48 36.16735 -100.01382 36688 ft 375 kts 308°
2026-05-04 19:48 36.20409 -100.05913 36683 ft 375 kts 308°
2026-05-04 19:49 36.24105 -100.10480 36676 ft 376 kts 308°
2026-05-04 19:49 36.27806 -100.15056 36671 ft 376 kts 308°
2026-05-04 19:50 36.31502 -100.19633 36701 ft 376 kts 308°
2026-05-04 19:50 36.35195 -100.24211 36656 ft 375 kts 308°
2026-05-04 19:51 36.38863 -100.28766 36656 ft 376 kts 307°
2026-05-04 19:51 36.42555 -100.33357 36666 ft 376 kts 307°
2026-05-04 19:52 36.46248 -100.37956 36677 ft 376 kts 307°
2026-05-04 19:52 36.49937 -100.42556 36685 ft 376 kts 307°
2026-05-04 19:53 36.53596 -100.47127 36712 ft 376 kts 307°
2026-05-04 19:53 36.57276 -100.51728 36669 ft 375 kts 307°
2026-05-04 19:54 36.60950 -100.56329 36670 ft 375 kts 307°
2026-05-04 19:54 36.64623 -100.60937 36669 ft 376 kts 307°
2026-05-04 19:55 36.68282 -100.65536 36667 ft 376 kts 307°
2026-05-04 19:55 36.71964 -100.70167 36667 ft 376 kts 307°
2026-05-04 19:56 36.75648 -100.74807 36693 ft 376 kts 307°
2026-05-04 19:56 36.79298 -100.79410 36697 ft 375 kts 307°
2026-05-04 19:57 36.82965 -100.84043 36715 ft 375 kts 307°
2026-05-04 19:57 36.86628 -100.88678 36733 ft 375 kts 307°
2026-05-04 19:58 36.90288 -100.93316 36750 ft 375 kts 307°
2026-05-04 19:58 36.93924 -100.97929 36765 ft 375 kts 307°
2026-05-04 19:59 36.97579 -101.02573 36782 ft 375 kts 307°
2026-05-04 19:59 37.01231 -101.07220 36765 ft 374 kts 307°
2026-05-04 20:00 37.04878 -101.11868 36749 ft 374 kts 306°
2026-05-04 20:00 37.08500 -101.16492 36741 ft 374 kts 306°
2026-05-04 20:01 37.12141 -101.21146 36722 ft 374 kts 306°
2026-05-04 20:01 37.15782 -101.25807 36750 ft 374 kts 306°
2026-05-04 20:02 37.19421 -101.30471 36757 ft 374 kts 306°
2026-05-04 20:02 37.23037 -101.35111 36747 ft 374 kts 306°
2026-05-04 20:03 37.26673 -101.39788 36665 ft 374 kts 306°
2026-05-04 20:03 37.30309 -101.44471 36675 ft 374 kts 306°
2026-05-04 20:04 37.33943 -101.49157 36672 ft 374 kts 306°
2026-05-04 20:04 37.37548 -101.53811 36682 ft 374 kts 306°
2026-05-04 20:05 37.41181 -101.58507 36690 ft 374 kts 305°
2026-05-04 20:05 37.44812 -101.63212 36719 ft 375 kts 305°
2026-05-04 20:06 37.48444 -101.67924 36719 ft 375 kts 305°
2026-05-04 20:06 37.52075 -101.72640 36725 ft 375 kts 305°
2026-05-04 20:07 37.55679 -101.77327 36725 ft 375 kts 305°
2026-05-04 20:07 37.59300 -101.82046 36730 ft 375 kts 305°
2026-05-04 20:08 37.62929 -101.86782 36719 ft 376 kts 304°
2026-05-04 20:08 37.66568 -101.91540 36702 ft 377 kts 304°
2026-05-04 20:09 37.70182 -101.96270 36687 ft 377 kts 304°
2026-05-04 20:09 37.73818 -102.01034 36669 ft 377 kts 304°
2026-05-04 20:10 37.77454 -102.05805 36658 ft 377 kts 304°
2026-05-04 20:10 37.81089 -102.10586 36634 ft 377 kts 304°
2026-05-04 20:11 37.84692 -102.15351 36651 ft 377 kts 304°
2026-05-04 20:11 37.88265 -102.20200 36647 ft 377 kts 304°
2026-05-04 20:12 37.91836 -102.25047 36652 ft 377 kts 304°
2026-05-04 20:12 37.95412 -102.29901 36652 ft 377 kts 304°
2026-05-04 20:13 37.98958 -102.34720 36682 ft 377 kts 304°
2026-05-04 20:13 38.02532 -102.39585 36704 ft 378 kts 303°
2026-05-04 20:14 38.06119 -102.44476 36720 ft 380 kts 303°
2026-05-04 20:14 38.09719 -102.49389 36736 ft 380 kts 303°
2026-05-04 20:15 38.13321 -102.54312 36742 ft 380 kts 303°
2026-05-04 20:15 38.16898 -102.59208 36749 ft 380 kts 303°
2026-05-04 20:16 38.20493 -102.64139 36742 ft 380 kts 303°
2026-05-04 20:16 38.24086 -102.69072 36727 ft 380 kts 303°
2026-05-04 20:17 38.27673 -102.74007 36714 ft 380 kts 303°
2026-05-04 20:17 38.31256 -102.78943 36689 ft 380 kts 303°
2026-05-04 20:18 38.34811 -102.83850 36677 ft 380 kts 303°
2026-05-04 20:18 38.38394 -102.88801 36659 ft 380 kts 302°
2026-05-04 20:19 38.41970 -102.93753 36677 ft 380 kts 303°
2026-05-04 20:19 38.45553 -102.98721 36655 ft 381 kts 303°
2026-05-04 20:20 38.49118 -103.03671 36655 ft 381 kts 303°
2026-05-04 20:20 38.52702 -103.08655 36656 ft 381 kts 302°
2026-05-04 20:21 38.56286 -103.13647 36645 ft 381 kts 302°
2026-05-04 20:21 38.61653 -103.21140 36169 ft 383 kts 303°
2026-05-04 20:22 38.63430 -103.23627 35918 ft 385 kts 303°
2026-05-04 20:22 38.65243 -103.26166 35666 ft 387 kts 303°
2026-05-04 20:22 38.67062 -103.28713 35413 ft 389 kts 303°
2026-05-04 20:22 38.68890 -103.31273 35032 ft 388 kts 303°
2026-05-04 20:23 38.70705 -103.33816 34306 ft 388 kts 304°
2026-05-04 20:23 38.72530 -103.36381 33448 ft 391 kts 304°
2026-05-04 20:23 38.74369 -103.38968 32546 ft 394 kts 305°
2026-05-04 20:23 38.76224 -103.41577 31668 ft 397 kts 306°
2026-05-04 20:24 38.78067 -103.44171 30786 ft 401 kts 306°
2026-05-04 20:24 38.79958 -103.46837 29875 ft 407 kts 307°
2026-05-04 20:24 38.81880 -103.49547 28753 ft 414 kts 308°
2026-05-04 20:24 38.83817 -103.52274 28050 ft 413 kts 308°
2026-05-04 20:25 38.85752 -103.55002 27355 ft 412 kts 308°
2026-05-04 20:25 38.87674 -103.57715 26668 ft 410 kts 308°
2026-05-04 20:25 38.89593 -103.60427 25944 ft 409 kts 308°
2026-05-04 20:25 38.91502 -103.63128 25250 ft 408 kts 308°
2026-05-04 20:26 38.93382 -103.65793 24581 ft 408 kts 308°
2026-05-04 20:26 38.95287 -103.68494 23885 ft 408 kts 308°
2026-05-04 20:26 38.97193 -103.71200 23174 ft 409 kts 309°
2026-05-04 20:26 38.99101 -103.73911 22416 ft 409 kts 309°
2026-05-04 20:27 39.01003 -103.76616 21791 ft 406 kts 309°
2026-05-04 20:27 39.02859 -103.79252 21657 ft 390 kts 309°
2026-05-04 20:27 39.04646 -103.81791 21538 ft 375 kts 309°
2026-05-04 20:27 39.06360 -103.84230 21440 ft 360 kts 309°
2026-05-04 20:28 39.07986 -103.86550 21328 ft 348 kts 309°
2026-05-04 20:28 39.09578 -103.88821 21204 ft 338 kts 308°
2026-05-04 20:28 39.11163 -103.91092 20710 ft 344 kts 309°
2026-05-04 20:28 39.12767 -103.93392 20102 ft 346 kts 309°
2026-05-04 20:29 39.14372 -103.95715 19562 ft 348 kts 309°
2026-05-04 20:29 39.15979 -103.98052 19017 ft 350 kts 309°
2026-05-04 20:29 39.17599 -104.00408 18443 ft 352 kts 309°
2026-05-04 20:29 39.19230 -104.02781 17874 ft 355 kts 309°
2026-05-04 20:30 39.20871 -104.05169 17292 ft 355 kts 309°
2026-05-04 20:30 39.22483 -104.07514 16790 ft 353 kts 309°
2026-05-04 20:30 39.24111 -104.09884 16244 ft 352 kts 309°
2026-05-04 20:30 39.25716 -104.12222 16002 ft 342 kts 310°
2026-05-04 20:31 39.27259 -104.14470 15883 ft 328 kts 310°
2026-05-04 20:31 39.28739 -104.16630 15773 ft 315 kts 309°
2026-05-04 20:31 39.30234 -104.18663 15383 ft 313 kts 316°
2026-05-04 20:31 39.31957 -104.20385 14913 ft 314 kts 322°
2026-05-04 20:32 39.33744 -104.22003 14474 ft 314 kts 323°
2026-05-04 20:32 39.35510 -104.23588 14035 ft 313 kts 323°
2026-05-04 20:32 39.37291 -104.25203 13701 ft 310 kts 323°
2026-05-04 20:32 39.39032 -104.26837 13570 ft 309 kts 322°
2026-05-04 20:33 39.40760 -104.28473 13335 ft 307 kts 322°
2026-05-04 20:33 39.42482 -104.30102 13074 ft 306 kts 322°
2026-05-04 20:33 39.44202 -104.31716 12881 ft 305 kts 323°
2026-05-04 20:33 39.46181 -104.33048 12839 ft 340 kts 339°
2026-05-04 20:34 39.48603 -104.33669 12786 ft 369 kts 353°
2026-05-04 20:34 39.51185 -104.33892 12532 ft 369 kts 356°
2026-05-04 20:34 39.53651 -104.34030 11653 ft 357 kts 356°
2026-05-04 20:34 39.56114 -104.34158 10891 ft 346 kts 357°
2026-05-04 20:35 39.58410 -104.34276 10780 ft 314 kts 356°
2026-05-04 20:35 39.60497 -104.34383 10696 ft 288 kts 356°
2026-05-04 20:35 39.62525 -104.34492 10650 ft 295 kts 355°
2026-05-04 20:35 39.64574 -104.34606 10535 ft 294 kts 356°
2026-05-04 20:36 39.66613 -104.34717 10427 ft 290 kts 355°
2026-05-04 20:36 39.68586 -104.34824 10316 ft 278 kts 356°
2026-05-04 20:36 39.70467 -104.34925 10210 ft 272 kts 355°
2026-05-04 20:36 39.72358 -104.35031 10051 ft 272 kts 356°
2026-05-04 20:37 39.74253 -104.35135 9795 ft 277 kts 355°
2026-05-04 20:37 39.76231 -104.35248 9682 ft 289 kts 356°
2026-05-04 20:37 39.78204 -104.35355 9573 ft 277 kts 355°
2026-05-04 20:37 39.80093 -104.35457 9436 ft 266 kts 356°
2026-05-04 20:38 39.81903 -104.35553 9290 ft 255 kts 355°
2026-05-04 20:38 39.83636 -104.35647 9157 ft 244 kts 356°
2026-05-04 20:38 39.85253 -104.35932 9005 ft 231 kts 343°
2026-05-04 20:38 39.86489 -104.37006 8984 ft 209 kts 306°
2026-05-04 20:39 39.87168 -104.38655 8839 ft 206 kts 288°
2026-05-04 20:39 39.87526 -104.40397 8606 ft 193 kts 277°
2026-05-04 20:39 39.87564 -104.42080 8357 ft 181 kts 269°
2026-05-04 20:39 39.87576 -104.43683 8061 ft 174 kts 272°
2026-05-04 20:40 39.87596 -104.45214 7810 ft 163 kts 271°
2026-05-04 20:40 39.87608 -104.46632 7609 ft 151 kts 271°
2026-05-04 20:40 39.87617 -104.47962 7420 ft 145 kts 271°
2026-05-04 20:40 39.87628 -104.49261 7247 ft 146 kts 271°
2026-05-04 20:41 39.87638 -104.50576 7068 ft 145 kts 272°
2026-05-04 20:41 39.87648 -104.51890 6886 ft 145 kts 271°
2026-05-04 20:41 39.87657 -104.53209 6719 ft 146 kts 271°
2026-05-04 20:41 39.87667 -104.54523 6527 ft 144 kts 270°
2026-05-04 20:42 39.87677 -104.55824 6349 ft 143 kts 272°
2026-05-04 20:42 39.87684 -104.56805 6121 ft 140 kts 270°
2026-05-04 20:42 39.87701 -104.57835 5925 ft 134 kts 271°
2026-05-04 20:42 39.87678 -104.59021 5769 ft 137 kts 268°
2026-05-04 20:43 39.87702 -104.60293 5613 ft 143 kts 270°
2026-05-04 20:43 39.87722 -104.61567 5382 ft 137 kts 268°
2026-05-04 20:43 39.87724 -104.62767 5321 ft 127 kts 270°
2026-05-04 20:43 39.87735 -104.63677 5339 ft 62 kts 271°
2026-05-04 20:44 39.87738 -104.63878 5340 ft 0 kts 271°
2026-05-04 20:44 39.87739 -104.63949 5341 ft 27 kts 271°
2026-05-04 20:44 39.87741 -104.64200 5342 ft 26 kts 271°
2026-05-04 20:44 39.87722 -104.64410 5347 ft 21 kts 253°
2026-05-04 20:45 39.87638 -104.64657 5349 ft 37 kts 243°
2026-05-04 20:45 39.87582 -104.64950 5351 ft 31 kts 268°
2026-05-04 20:45 39.87583 -104.65209 5355 ft 26 kts 272°
2026-05-04 20:45 39.87586 -104.65427 5358 ft 22 kts 270°
2026-05-04 20:46 39.87587 -104.65614 5358 ft 19 kts 270°
2026-05-04 20:46 39.87589 -104.65787 5360 ft 20 kts 270°
2026-05-04 20:46 39.87590 -104.65956 5362 ft 20 kts 270°
2026-05-04 20:46 39.87591 -104.66122 5364 ft 17 kts 269°
2026-05-04 20:47 39.87521 -104.66208 5364 ft 14 kts 189°
2026-05-04 20:47 39.87418 -104.66214 5365 ft 15 kts 181°
2026-05-04 20:47 39.87284 -104.66215 5368 ft 23 kts 180°
2026-05-04 20:47 39.87107 -104.66217 5369 ft 35 kts 180°
2026-05-04 20:48 39.86870 -104.66221 5376 ft 32 kts 181°
2026-05-04 20:48 39.86663 -104.66227 5385 ft 27 kts 181°
2026-05-04 20:48 39.86484 -104.66227 5384 ft 25 kts 180°
2026-05-04 20:48 39.86317 -104.66227 5385 ft 23 kts 180°
2026-05-04 20:49 39.86157 -104.66228 5385 ft 22 kts 181°
2026-05-04 20:49 39.86032 -104.66272 5386 ft 17 kts 239°
2026-05-04 20:49 39.86016 -104.66422 5389 ft 18 kts 270°
2026-05-04 20:49 39.86011 -104.66585 5386 ft 18 kts 265°
2026-05-04 20:50 39.86008 -104.66744 5386 ft 17 kts 271°
2026-05-04 20:50 39.86008 -104.66888 5386 ft 16 kts 269°
2026-05-04 20:50 39.85997 -104.67019 5386 ft 13 kts 232°
2026-05-04 20:50 39.85942 -104.67039 5386 ft 0 kts 181°